Stations météo

Publicité
Lulea/Kallax, Suède (2186): Température de l'air & dewpoint: 14.10.2018 22:00:00 - 20.10.2018 22:00:00 (CEST)Lulea/Kallax, Suède (2186): Vitesse du vent & gusts: 14.10.2018 22:00:00 - 20.10.2018 22:00:00 (CEST)Lulea/Kallax, Suède (2186): Direction du vent: 14.10.2018 22:00:00 - 20.10.2018 22:00:00 (CEST)Lulea/Kallax, Suède (2186): reduced air pressure: 14.10.2018 22:00:00 - 20.10.2018 22:00:00 (CEST)Lulea/Kallax, Suède (2186): visibility: 14.10.2018 22:00:00 - 20.10.2018 22:00:00 (CEST)Lulea/Kallax, Suède (2186): Quantités de précipitations: 14.10.2018 22:00:00 - 20.10.2018 22:00:00 (CEST)
Date & Time tt [°C] td [°C] ff [km/h] ff [knt] fx [km/h] fx [knt] dd ppp [hPa] vv [km] rr [mm]
20.10.2018 22:00:00 4,0 3,0 8 4 - - SW - 10 -
20.10.2018 21:00:00 4,5 3,5 5 3 14 8 SW 1015,6 10 0,0
20.10.2018 20:00:00 5,4 4,0 8 4 14 8 SW 1015,9 10 0,0
20.10.2018 19:00:00 5,6 4,4 8 4 11 6 SSW 1015,8 10 0,0
20.10.2018 18:00:00 6,3 4,5 4 2 11 6 SW 1016,3 10 0,0
20.10.2018 17:00:00 6,8 4,6 5 3 14 8 SSW 1016,7 10 0,0
20.10.2018 16:00:00 6,5 4,3 4 2 7 4 SSW 1016,8 10 0,0
20.10.2018 15:00:00 6,7 4,2 0 0 7 4 N 1016,5 10 0,0
20.10.2018 14:00:00 5,9 3,6 2 1 7 4 S 1016,7 10 0,0
20.10.2018 13:00:00 5,6 3,3 0 0 7 4 N 1016,8 10 0,1
20.10.2018 12:00:00 4,9 2,4 0 0 11 6 N 1017,0 10 0,0
20.10.2018 11:00:00 4,0 1,9 0 0 4 2 N 1016,8 10 0,0
20.10.2018 10:00:00 2,3 1,4 0 0 0 0 N 1016,5 10 0,0
20.10.2018 09:00:00 0,9 0,0 0 0 4 2 N 1016,2 10 0,0
20.10.2018 08:00:00 0,6 -0,1 2 1 4 2 NW 1016,2 10 0,0
20.10.2018 07:00:00 0,3 -0,4 2 1 4 2 W 1016,3 10 0,0
20.10.2018 06:00:00 0,2 -0,5 0 0 4 2 N 1015,8 10 0,0
20.10.2018 05:00:00 0,1 -0,8 2 1 7 4 NW 1015,6 10 0,0
20.10.2018 04:00:00 0,5 -0,6 2 1 7 4 NW 1015,6 10 0,0
20.10.2018 03:00:00 1,5 0,5 2 1 4 2 NNW 1015,7 10 0,0
20.10.2018 02:00:00 0,5 -0,4 2 1 4 2 NW 1015,8 10 0,0
20.10.2018 01:00:00 0,3 -0,7 2 1 4 2 NW 1015,8 10 0,0
20.10.2018 00:00:00 0,3 -0,8 0 0 7 4 N 1015,6 10 0,0
19.10.2018 23:00:00 1,2 -0,3 4 2 7 4 NW 1015,5 10 0,0
19.10.2018 22:00:00 1,0 -0,6 2 1 7 4 NNW 1015,4 10 0,0
19.10.2018 21:00:00 1,9 -0,4 0 0 11 6 N 1015,2 10 0,0
19.10.2018 20:00:00 3,3 0,9 4 2 7 4 WNW 1015,0 10 0,0
19.10.2018 19:00:00 4,2 1,6 0 0 11 6 N 1014,6 10 0,0
19.10.2018 18:00:00 5,9 2,5 8 4 11 6 W 1014,4 10 0,0
19.10.2018 17:00:00 7,8 2,3 0 0 18 10 N 1013,8 10 0,0
19.10.2018 16:00:00 10,1 2,7 15 8 25 14 WNW 1013,3 10 0,0
19.10.2018 15:00:00 11,1 2,9 22 12 32 18 NW 1013,0 10 0,0
19.10.2018 14:00:00 11,3 2,8 21 11 36 19 NW 1012,6 10 0,0
19.10.2018 13:00:00 10,9 2,7 24 13 40 21 NW 1012,0 10 0,0
19.10.2018 12:00:00 10,3 2,6 28 15 43 23 NW 1011,3 10 0,0
19.10.2018 11:00:00 9,5 2,6 26 14 40 21 WNW 1010,7 10 0,0
19.10.2018 10:00:00 8,2 2,0 21 11 32 18 WNW 1010,3 10 0,0
19.10.2018 09:00:00 7,4 1,9 21 11 36 19 WNW 1009,3 10 0,0
19.10.2018 08:00:00 7,3 1,8 22 12 40 21 WNW 1008,5 10 0,0
19.10.2018 07:00:00 7,8 1,6 28 15 40 21 WNW 1007,6 10 0,0
19.10.2018 06:00:00 7,8 1,6 22 12 40 21 WNW 1007,2 10 0,0
19.10.2018 05:00:00 7,7 1,5 28 15 40 21 WNW 1006,5 10 0,0
19.10.2018 04:00:00 7,6 1,4 22 12 36 19 W 1006,2 10 0,0
19.10.2018 03:00:00 7,4 1,5 16 9 29 16 W 1005,8 10 0,0
19.10.2018 02:00:00 7,3 1,4 16 9 25 14 W 1005,6 10 0,0
19.10.2018 01:00:00 7,6 1,7 15 8 32 18 WSW 1005,6 10 0,0
19.10.2018 00:00:00 8,2 1,8 18 10 36 19 W 1005,4 10 0,0
18.10.2018 23:00:00 8,3 2,1 21 11 40 21 W 1005,4 10 0,0
18.10.2018 22:00:00 8,2 2,0 18 10 36 19 W 1005,4 10 0,0
18.10.2018 21:00:00 8,1 2,1 21 11 29 16 W 1005,5 10 0,0
18.10.2018 20:00:00 7,3 2,0 11 6 22 12 W 1005,5 10 0,0
18.10.2018 19:00:00 6,9 1,2 9 5 22 12 WSW 1005,8 10 0,0
18.10.2018 18:00:00 7,3 0,9 11 6 25 14 W 1005,9 10 0,0
18.10.2018 17:00:00 7,8 1,6 8 4 18 10 W 1006,1 10 0,0
18.10.2018 16:00:00 9,2 1,8 8 4 25 14 WSW 1006,1 10 0,0
18.10.2018 15:00:00 9,8 1,9 13 7 25 14 W 1006,3 10 0,0
18.10.2018 14:00:00 10,0 3,3 8 4 14 8 WSW 1006,5 10 0,0
18.10.2018 13:00:00 9,1 3,9 11 6 18 10 WSW 1006,7 10 0,0
18.10.2018 12:00:00 8,2 4,0 11 6 18 10 WSW 1007,1 10 0,0
18.10.2018 11:00:00 7,4 4,4 0 0 11 6 N 1007,4 10 0,0
18.10.2018 10:00:00 7,0 4,3 4 2 14 8 - 1007,4 10 0,0
18.10.2018 09:00:00 5,3 4,6 5 3 11 6 WSW 1007,6 10 0,0
18.10.2018 08:00:00 5,4 4,5 5 3 11 6 SW 1007,0 10 0,0
18.10.2018 07:00:00 5,8 4,8 9 5 18 10 SW 1007,0 10 0,0
18.10.2018 06:00:00 5,5 5,1 8 4 11 6 WSW 1007,0 10 0,0
18.10.2018 05:00:00 5,0 4,3 5 3 14 8 W 1007,3 10 0,0
18.10.2018 04:00:00 5,1 4,5 9 5 14 8 WSW 1007,2 10 0,0
18.10.2018 03:00:00 4,8 4,4 9 5 14 8 SSW 1007,8 10 0,0
18.10.2018 02:00:00 4,4 3,8 0 0 11 6 N 1007,5 10 0,0
18.10.2018 01:00:00 4,6 4,0 11 6 14 8 WSW 1007,4 10 0,0
18.10.2018 00:00:00 5,3 4,7 8 4 14 8 WSW 1007,5 10 0,0
17.10.2018 23:00:00 5,6 5,0 5 3 14 8 WSW 1007,6 10 0,0
17.10.2018 22:00:00 5,9 5,5 4 2 11 6 SW 1007,2 10 0,0
17.10.2018 21:00:00 6,3 5,9 5 3 14 8 WSW 1007,4 10 0,0
17.10.2018 20:00:00 6,8 6,4 4 2 18 10 W 1007,5 10 0,0
17.10.2018 19:00:00 7,1 6,7 8 4 22 12 W 1007,7 10 0,0
17.10.2018 18:00:00 7,4 7,0 5 3 11 6 WSW 1007,7 10 0,0
17.10.2018 17:00:00 7,5 7,1 8 4 22 12 SW 1008,2 2,5 0,0
17.10.2018 16:00:00 7,7 7,3 13 7 25 14 S 1008,9 5 0,0
17.10.2018 15:00:00 7,6 7,2 18 10 25 14 S 1009,7 4,0 0,3
17.10.2018 14:00:00 7,6 7,2 16 9 29 16 S 1010,4 3,0 1,0
17.10.2018 13:00:00 7,4 7,0 18 10 29 16 S 1011,4 3,0 0,5
17.10.2018 12:00:00 7,7 6,7 18 10 25 14 S 1012,2 10 0,0
17.10.2018 11:00:00 7,5 6,4 21 11 32 18 S 1013,0 10 0,0
17.10.2018 10:00:00 7,7 6,6 16 9 29 16 S 1013,9 10 0,0
17.10.2018 09:00:00 7,6 6,4 18 10 29 16 S 1013,9 10 0,0
17.10.2018 08:00:00 7,4 5,9 18 10 29 16 S 1014,2 10 0,0
17.10.2018 07:00:00 6,8 5,1 15 8 22 12 S 1014,4 10 0,0
17.10.2018 06:00:00 5,9 4,4 5 3 18 10 S 1015,5 10 0,0
17.10.2018 05:00:00 5,2 3,9 8 4 11 6 S 1016,1 10 0,0
17.10.2018 04:00:00 2,9 2,2 0 0 7 4 N 1016,4 10 0,0
17.10.2018 03:00:00 2,8 2,1 0 0 4 2 N 1016,7 10 0,0
17.10.2018 02:00:00 3,7 2,5 0 0 11 6 N 1017,1 10 0,0
17.10.2018 01:00:00 4,3 3,0 9 5 11 6 SW 1017,2 10 0,0
17.10.2018 00:00:00 2,6 1,3 0 0 7 4 N 1017,1 10 0,0
16.10.2018 23:00:00 2,7 1,5 2 1 7 4 S 1017,6 10 0,0
16.10.2018 22:00:00 3,8 1,2 0 0 4 2 N 1017,5 10 0,0
16.10.2018 21:00:00 5,5 2,1 0 0 7 4 N 1017,4 10 0,0
16.10.2018 20:00:00 6,3 1,8 2 1 7 4 WSW 1017,3 10 0,0
16.10.2018 19:00:00 7,3 2,0 5 3 14 8 W 1017,0 10 0,0
16.10.2018 18:00:00 7,5 2,2 8 4 14 8 W 1016,7 10 0,0
16.10.2018 17:00:00 7,9 2,0 8 4 14 8 W 1016,0 10 0,0
16.10.2018 16:00:00 9,4 2,0 9 5 25 14 W 1015,7 10 0,0
16.10.2018 15:00:00 10,1 2,2 14 8 25 14 W 1015,1 82 0,0
16.10.2018 14:00:00 10,0 1,9 16 9 25 14 WNW 1014,9 10 0,0
16.10.2018 13:00:00 9,4 1,8 13 7 22 12 W 1014,4 10 0,0
16.10.2018 12:00:00 7,9 1,3 8 4 18 10 WNW 1013,8 10 0,0
16.10.2018 11:00:00 6,6 1,1 4 2 11 6 - 1013,4 10 0,0
16.10.2018 10:00:00 5,4 1,5 5 3 11 6 W 1013,2 10 0,0
16.10.2018 09:00:00 2,7 1,2 4 2 7 4 W 1012,2 10 0,0
16.10.2018 08:00:00 1,4 0,4 5 3 11 6 WNW 1011,8 10 0,0
16.10.2018 07:00:00 3,0 1,2 4 2 11 6 - 1011,5 10 0,0
16.10.2018 06:00:00 3,4 1,6 4 2 11 6 WNW 1011,2 10 0,0
16.10.2018 05:00:00 4,6 2,5 8 4 11 6 NNW 1011,0 10 0,0
16.10.2018 04:00:00 4,6 2,6 5 3 7 4 NW 1011,0 10 0,0
16.10.2018 03:00:00 5,7 3,4 5 3 11 6 NW 1011,0 10 0,0
16.10.2018 02:00:00 6,1 3,6 9 5 11 6 NW 1011,0 10 0,0
16.10.2018 01:00:00 6,3 3,8 4 2 11 6 NNW 1010,8 10 0,0
16.10.2018 00:00:00 6,4 3,7 8 4 11 6 NW 1011,0 10 0,0
15.10.2018 23:00:00 6,5 3,6 4 2 7 4 N 1011,0 10 0,0
15.10.2018 22:00:00 6,4 3,7 4 2 7 4 N 1011,5 10 0,0
15.10.2018 21:00:00 8,3 3,1 5 3 7 4 NNE 1011,6 10 0,0
15.10.2018 20:00:00 8,6 4,0 4 2 7 4 - 1011,5 10 0,0
15.10.2018 19:00:00 7,9 4,8 2 1 7 4 NNW 1012,1 10 0,0
15.10.2018 18:00:00 8,8 5,4 0 0 7 4 N 1011,8 10 0,0
15.10.2018 17:00:00 8,6 5,7 4 2 7 4 NNW 1011,7 10 0,0
15.10.2018 16:00:00 10,2 5,8 5 3 7 4 NW 1011,4 10 0,0
15.10.2018 15:00:00 10,1 5,9 4 2 14 8 WNW 1011,0 10 0,0
15.10.2018 14:00:00 10,7 5,5 9 5 22 12 NNW 1010,6 10 0,0
15.10.2018 13:00:00 10,6 5,1 16 9 25 14 WNW 1009,8 10 0,0
15.10.2018 12:00:00 10,7 5,0 18 10 25 14 WNW 1009,0 10 0,0
15.10.2018 11:00:00 11,4 6,1 21 11 29 16 WNW 1007,8 10 0,0
15.10.2018 10:00:00 11,4 8,6 11 6 18 10 W 1006,2 10 0,0
15.10.2018 09:00:00 10,7 8,3 9 5 18 10 WSW 1004,8 10 0,0
15.10.2018 08:00:00 9,3 7,6 13 7 25 14 SSW 1003,9 10 0,0
15.10.2018 07:00:00 9,3 7,7 16 9 29 16 SSW 1003,5 10 0,0
15.10.2018 06:00:00 9,3 7,7 16 9 25 14 SSW 1002,9 10 0,0
15.10.2018 05:00:00 9,3 7,7 16 9 25 14 SSW 1002,7 10 0,0
15.10.2018 04:00:00 9,5 7,9 16 9 29 16 SSW 1003,0 10 0,0
15.10.2018 03:00:00 9,4 7,8 18 10 25 14 SSW 1003,0 10 0,0
15.10.2018 02:00:00 9,7 8,0 16 9 25 14 SSW 1003,1 10 0,0
15.10.2018 01:00:00 9,9 8,0 15 8 32 18 SSW 1003,4 10 0,0
15.10.2018 00:00:00 9,7 8,0 22 12 36 19 S 1003,8 10 0,0
14.10.2018 23:00:00 9,8 8,1 24 13 40 21 S 1004,0 10 0,0
14.10.2018 22:00:00 10,2 8,5 22 12 36 19 S 1004,1 10 0,0

tt = Température de l'air
td = dewpoint
ff = Vitesse du vent
fx = gusts
dd = Direction du vent
ppp = reduced air pressure
vv = visibility
rr = Quantités de précipitations

stations d'obs. à proximité